Cloud_Cover
100 100 100 100 41 20 4 87 8 1 1 30 50 0 0 0 0 4 5 5 70 62 38 5 7 5 71 99 100 5 5 5 5 8 0 0 1 1 0 1 10 5 5 8 6 8 25 14 5
100 100 100 100 5 38 99 3 0 0 5 4 2 0 0 0 0 0 0 3 5 5 5 5 5 8 6 28 10 4 5 3 3 2 6 16 1 0 6 7 5 5 16 51 97 100 100 100 89
100 100 100 100 48 46 33 100 5 0 4 0 0 0 0 0 0 0 0 5 16 22 35 9 5 90 5 2 5 1 1 5 4 5 2 0 1 0 1 1 5 35 100 92 100 96 100 100 100
100 100 100 100 73 98 47 6 0 0 0 0 0 0 0 0 0 0 5 48 58 94 94 64 5 15 4 4 4 2 5 0 8 10 12 6 2 0 0 3 5 6 76 96 49 100 99 99 100
100 100 100 97 88 8 5 4 0 0 0 0 0 0 0 0 0 5 5 5 11 5 0 0 0 5 8 5 0 6 4 4 1 0 0 8 7 5 8 15 95 100 100 18 5 37 100 95 100
100 100 100 100 63 14 11 30 2 0 0 0 0 0 0 0 0 0 0 5 3 0 0 0 0 2 0 0 1 3 1 0 2 1 4 5 5 5 5 88 100 100 100 100 88 48 100 100 72
100 100 100 100 54 33 75 27 0 0 0 0 0 0 0 0 0 4 24 0 0 0 0 0 0 0 7 0 3 4 3 0 7 0 5 5 5 23 55 66 75 100 64 58 6 99 100 100 100
100 100 100 65 14 80 87 90 0 0 0 0 0 0 0 0 0 66 19 0 0 0 0 0 0 0 0 0 10 0 10 2 0 2 32 100 100 100 97 66 100 100 100 100 100 91 100 100 100
100 100 96 47 30 5 17 20 1 42 5 0 0 0 0 0 0 9 0 0 0 0 0 0 0 0 0 0 0 4 5 0 7 100 91 99 100 100 100 100 100 100 100 100 100 96 100 100 100
100 100 36 28 71 40 0 0 0 0 35 0 0 0 1 0 0 0 0 0 0 0 0 0 0 0 0 4 8 14 1 5 64 100 99 100 100 100 100 100 100 100 100 98 100 100 100 100 93
78 47 6 84 19 43 4 1 0 0 0 0 0 0 0 0 1 5 0 0 0 0 0 0 0 5 4 5 18 20 100 100 100 100 100 100 100 100 100 100 100 100 99 100 100 100 91 8 4
64 5 22 99 95 38 4 3 0 0 2 0 0 0 5 0 0 0 2 3 1 0 0 0 0 0 0 4 32 100 100 100 100 100 100 93 100 100 100 100 100 100 100 100 100 100 100 100 82
98 95 1 78 99 100 38 97 70 0 0 0 0 0 0 0 0 0 4 0 0 0 0 0 0 0 0 10 97 92 100 100 100 100 82 100 100 83 100 100 100 100 100 100 100 100 99 35 5
39 95 21 8 5 5 1 6 5 96 5 0 0 0 1 2 0 22 0 0 0 0 0 0 0 0 2 0 0 3 91 100 100 100 64 90 100 100 100 100 100 100 100 100 97 70 15 65 72
60 98 4 0 0 2 8 5 0 2 30 0 2 4 5 43 33 1 0 0 0 0 0 0 0 0 0 0 2 4 0 3 8 39 2 78 100 100 100 100 100 100 100 22 36 15 100 100 32
59 52 38 5 94 3 11 5 7 3 6 4 10 12 11 1 3 4 0 0 0 0 0 0 0 0 0 0 0 0 0 2 3 0 0 2 1 4 39 82 56 28 26 99 93 5 17 5 5
100 100 87 46 5 54 100 68 16 6 38 1 9 100 77 80 25 82 24 1 7 0 0 0 0 0 0 0 0 0 13 0 0 0 0 0 22 6 0 9 5 10 100 87 17 4 26 100 77
80 97 21 66 39 99 25 100 100 78 5 65 13 100 100 100 98 91 58 46 6 4 0 0 0 0 0 0 0 0 31 2 23 29 6 3 78 77 81 19 5 22 100 100 100 100 86 18 97
100 18 28 100 84 51 51 100 71 99 4 42 93 100 100 100 100 100 100 100 5 5 10 5 0 0 0 0 0 0 0 0 6 96 4 5 0 4 30 5 47 27 100 100 100 100 100 81 50
100 40 90 87 93 70 26 69 44 41 100 100 89 99 100 100 100 100 100 100 99 48 36 3 24 0 0 0 0 0 0 0 5 46 85 5 39 27 92 100 89 31 48 39 84 100 100 92 11
100 86 100 98 94 100 100 100 96 71 95 100 96 100 100 100 100 78 100 99 100 23 4 8 5 1 0 0 0 0 0 2 0 13 100 36 88 100 100 100 100 100 100 100 100 90 90 100 26
100 100 99 100 100 98 100 100 100 87 96 100 100 99 100 94 100 97 100 100 100 100 97 8 0 1 1 0 0 1 3 22 93 99 100 100 100 100 100 100 100 100 100 100 100 100 88 100 83
99 100 100 100 100 100 100 56 88 100 93 5 6 100 100 100 100 100 100 100 100 100 100 84 49 12 4 2 5 10 40 26 86 94 100 100 100 100 100 100 100 100 100 100 100 100 100 100 100
100 100 100 100 100 100 100 97 59 100 91 3 8 79 96 100 100 100 100 100 100 100 100 100 54 68 62 5 93 41 64 100 97 100 100 80 99 100 100 100 100 100 100 100 100 100 100 100 100
100 100 100 98 63 100 100 95 97 97 95 6 4 13 99 100 100 100 100 100 100 99 100 100 100 98 71 42 62 78 79 100 100 100 100 100 100 100 100 64 82 100 100 100 100 100 100 100 100
100 100 100 98 68 6 5 2 97 43 100 50 5 4 98 100 100 100 100 100 100 100 100 100 100 100 94 100 100 100 100 100 99 100 100 100 100 100 100 100 100 98 100 100 100 100 100 100 100
68 12 81 67 80 9 24 6 5 13 79 29 99 87 18 95 100 100 100 100 100 100 100 100 100 100 100 100 100 100 100 100 100 100 99 100 100 100 100 100 100 100 100 100 100 100 99 100 100
0 10 36 96 23 5 4 4 4 4 15 10 18 100 100 100 100 100 100 100 100 100 100 100 100 100 100 100 100 100 100 100 100 100 100 85 100 52 22 76 96 100 100 100 100 100 100 100 100
0 0 0 1 3 1 1 39 9 5 18 5 100 100 100 100 100 100 100 100 100 100 100 100 100 100 100 100 100 100 100 100 100 88 100 100 33 14 6 5 4 5 75 100 100 100 100 100 100
0 5 2 0 0 0 0 0 25 100 100 100 100 100 100 100 100 100 100 100 100 100 100 100 100 100 100 100 100 100 94 82 87 86 47 40 28 6 4 5 5 16 5 3 69 100 97 98 87